Regional Weather Roundup
Issued by NWS

Home | Current Version | Previous Version | Text Only | Print | Product List | Glossary On
Versions: 1 2 3 4 5 6 7 8 9 10 11 12 13 14 15 16 17 18 19 20 21 22 23 24 25 26 27 28 29 30 31 32 33 34 35 36 37 38 39 40 41 42 43 44 45 46 47 48 49 50
000
ASUS43 KOAX 020910
RWRNE

WEATHER ROUNDUP FOR NEBRASKA
NATIONAL WEATHER SERVICE OMAHA NE
400 AM CDT WED SEP 02 2015

NOTES: SATELLITE DATA IS BEING USED TO AUGMENT CLOUD COVER ABOVE
       12000 FEET.
       "FAIR" INDICATES FEW OR NO CLOUDS BELOW 12,000 FEET WITH NO
       SIGNIFICANT WEATHER AND/OR OBSTRUCTIONS TO VISIBILITY.

  * THESE STATIONS DO NOT REPORT WEATHER SUCH AS RAIN...SNOW OR FOG.

NEZ001>004-019>022-054>056-021000-
NEBRASKA PANHANDLE

CITY           SKY/WX    TMP DP  RH WIND       PRES   REMARKS
SCOTTSBLUFF    PTCLDY    58  51  78 N5        29.96F
ALLIANCE       PTCLDY    57  47  69 W8        29.94R
CHADRON        CLEAR     56  45  66 SW5       29.88R
KIMBALL        PTCLDY    57  44  61 W6        30.02S
SIDNEY         CLEAR     62  43  49 W10       29.99F
$$

NEZ057>060-069>072-079>082-021000-
SOUTHWEST NEBRASKA

CITY           SKY/WX    TMP DP  RH WIND       PRES   REMARKS
NORTH PLATTE   CLEAR     63  59  87 CALM      29.91S
IMPERIAL       CLEAR     65  56  72 SW7       29.94S
LEXINGTON      CLEAR     64  61  91 E3        29.90S
MCCOOK         CLEAR     63  57  81 CALM      29.90S
OGALLALA       CLEAR     62  57  86 CALM      29.92F
$$

NEZ005>010-023>029-035>040-094-021000-
NORTH CENTRAL NEBRASKA

CITY           SKY/WX    TMP DP  RH WIND       PRES   REMARKS
VALENTINE      CLEAR     65  59  81 CALM      29.85S
AINSWORTH      CLEAR     65  62  90 S7        29.86
BROKEN BOW     CLEAR     63  60  90 CALM      29.89S
O`NEILL        CLEAR     67  65  93 S6        29.85S
ORD            CLEAR     69  62  78 S3        29.86S
THEDFORD       CLEAR     67  61  83 SW7       29.89F
$$

NEZ041-046>049-061>064-073>077-083>087-021000-
SOUTH CENTRAL NEBRASKA

CITY           SKY/WX    TMP DP  RH WIND       PRES   REMARKS
GRAND ISLAND   CLEAR     72  63  73 S10       29.88F
AURORA         CLEAR     72  67  85 S8        29.88F
HASTINGS       CLEAR     71  63  75 S7        29.89S
HEBRON         CLEAR     74  65  74 S7        29.90S
HOLDREGE       CLEAR     70  58  66 SW9       29.90S
KEARNEY *      CLEAR     66  59  77 S8        29.89S
YORK           CLEAR     70  66  88 S8        29.89S
$$

NEZ011>018-030>034-042>045-021000-
NORTHEAST NEBRASKA

CITY           SKY/WX    TMP DP  RH WIND       PRES   REMARKS
NORFOLK        CLEAR     65  64  97 E3        29.85F
ALBION         CLEAR     69  63  81 S6        29.86F
BLAIR          CLEAR     73  66  80 S13       29.89S
COLUMBUS *     CLEAR     72  63  73 SW5       29.87S
FREMONT        CLEAR     73  66  81 SE6       29.89R
TEKAMAH        CLEAR     70  68  93 SE6       29.88R
WAYNE          CLEAR     67  65  94 S7        29.86F
$$

NEZ050>053-065>068-078-088>093-021000-
SOUTHEAST NEBRASKA

CITY           SKY/WX    TMP DP  RH WIND       PRES   REMARKS
LINCOLN        CLEAR     75  68  78 S12       29.89S
OMAHA EPPLEY   MOCLDY    76  68  76 SE14      29.90R
BEATRICE       CLEAR     74  67  78 S9        29.91R
FALLS CITY     MOCLDY    74  69  85 SE10      29.93S
NEBRASKA CITY  PTCLDY    74  65  75 S13       29.92S
PLATTSMOUTH    PTCLDY    73  67  80 SE10      29.91S
$$

NEZ044-045-051>053-067-021000-
OMAHA AREA

CITY           SKY/WX    TMP DP  RH WIND       PRES   REMARKS
OMAHA EPPLEY   MOCLDY    76  68  76 SE14      29.90R
BLAIR          CLEAR     73  66  80 S13       29.89S
FREMONT        CLEAR     73  66  81 SE6       29.89R
MILLARD        CLEAR     73  68  86 SE6       29.89S
OFFUTT AFB     PTCLDY    74  69  82 SE12      29.89S
PLATTSMOUTH    PTCLDY    73  67  80 SE10      29.91S
WAHOO          FAIR      70  67  90 SE6       29.88S
$$




USA.gov is the U.S. government's official web portal to all federal, state and local government web resources and services.